Showing default

IRIDIUM 115, 42806

Orbit data source: Space-Track

IRIDIUM 115, 42806 is a payload satellite owned by Iridium (US) in LEO that was launched on Sun, 25 Jun 2017 UTC via an FALCON 9 launch vehicle from the Air Force Western Test Range (AFWTR). Payload-class satellites include a variety of spacecraft equipped with specific instruments for various scientific and technological missions. These include communications satellites like Starlink; space stations such as the ISS; scientific satellites like the Hubble; Earth observation satellites from companies like Planet Labs, Umbra, and HawkEye 360; GPS; miniature CubeSats for education and research; and military/defense satellites.

Loading next visibility...
Identifier
42806, 2017-039D
Orbit
LEO
Country
Flag of USUS
Related business
Manufacturer
OATK SSG Gilbert
Mission
Operational Commercial Communications
Bus & Motor
ELITEBUS, Unknown motor
Mass
860 kg wet, 700 kg dry
Launch date (UTC)
2017-06-25 (8 years ago)
Launch vehicle
FALCON 9
Launch site
Air Force Western Test Range (AFWTR)
Object type
Payload
Rocket body
Debris
Shape & HBR
Trap Box + 2 Pan, 4.8 m
Radar Cross Section
10.154 m², Large (>1 m²)

Expand to show TLE details & history
Last TLE update: 9 hours ago

TLE from 9 hours ago
0 IRIDIUM 115
1 42806U 17039D   25342.66675462  .00000734  00000-0  21209-3 0  9999
2 42806  86.4504  41.7079 0002307 108.7126 251.4325 14.43282413446787
Epoch: 2025-12-08T16:00Z
TLE epoch observation values (Epoch: 2025-12-08T16:00:07.599Z)
Latitude
-0.00005°
Longitude
84.01373°
Altitude
751.262 km
Speed
7.479 km/s
True Right ascension
02h 46m 49s
True Declination
0° 00' 00"
Sunlit
Object was in full shadow at epoch
Visualization orbit readout
Latitude
Unknown
Longitude
Unknown
Altitude
Unknown
Speed
Unknown
Apparent Right ascension
Unknown
Apparent Declination
Unknown
Sunlit
N/A
Visualization observer readout
Local Sidereal Time
23:21:02
Azimuth
Unknown
Elevation
Unknown
Doppler factor
Unknown
Orbital elements
Apogee altitude
746.268 km
Perigee altitude
742.981 km
Semi-major axis
7,122.762 km
Eccentricity
0.00023
Inclination
86.4504°
RAAN
41.7079°
Arg. of periapsis
108.7126°
True anomaly
251.40744°
Mean anomaly
251.4325°
Eccentric anomaly
251.41997°
Mean motion
3.61053 °/min
Orbital period
99.71 mins
BSTAR
0.00021209
Loading maneuver chart data...
Computing Atmospheric mass density...
Loading historical data...
Loading historical data...
Loading historical data...
Loading historical data...
Loading historical data...
Loading historical data...
Loading historical data...

Documentation

Showing up to 5 results
|